Weather History for KCKC - January, 2014

Change the Weather History Date:

Friday, January 10, 2014

  Actual Average Record
Temperature  
Mean Temperature 20 °F -  
Max Temperature 24 °F 13 °F 37 °F (2001)
Min Temperature 15 °F 0 °F -16 °F (1999)
Degree Days  
Heating Degree Days 46    
Moisture  
Dew Point 16 °F    
Average Humidity 87    
Maximum Humidity 93    
Minimum Humidity 79    
Precipitation  
Precipitation 0.00 in - - ()
Sea Level Pressure  
Sea Level Pressure 29.61 in    
Wind  
Wind Speed 6 mph (South)    
Max Wind Speed 10 mph    
Max Gust Speed 16 mph    
Visibility 2 miles    
Events Fog , Snow    
Averages and records for this station are not official NWS values.
T = Trace of Precipitation, MM = Missing Value Source: NWS Daily Summary

Daily Weather History Graph

Daily Weather History Graph

Search for Another Location

Airport or City:

Trip Planner

Search our weather history database for the weather conditions in past years. The results will help you decide how hot, cold, wet, or windy it might be!

Date:

Astronomy

Jan. 10, 2014 Rise Set
Actual Time 7:48 AM CST 4:29 PM CST
Civil Twilight 7:13 AM CST 5:05 PM CST
Nautical Twilight 6:34 AM CST 5:44 PM CST
Astronomical Twilight 5:57 AM CST 6:21 PM CST
Moon 12:40 PM CST (1/10) 2:49 AM CST (1/10)
Length of Visible Light 9h 52m
Length of Day
8h 41m
Waxing Gibbous, 75% of the Moon is Illuminated
Jan 10
Waxing Gibbous
Jan 15
Full
Jan 23
Last Quarter
Jan 30
New
Feb 6
First Quarter

Hourly Weather History & Observations

Time (CST) Temp. Windchill Dew Point Humidity Pressure Visibility Wind Dir Wind Speed Gust Speed Precip Events Conditions
2:14 AM 15.8 °F 5.1 °F 12.2 °F 86% 29.77 in 7.0 mi South 8.1 mph - N/A   Overcast
2:33 AM 15.8 °F 3.4 °F 12.2 °F 86% 29.77 in 5.0 mi South 10.4 mph - N/A   Overcast
2:53 AM 15.8 °F 3.4 °F 12.2 °F 86% 29.76 in 5.0 mi South 10.4 mph - N/A   Overcast
3:13 AM 15.8 °F 6.1 °F 12.2 °F 86% 29.76 in 5.0 mi SSW 6.9 mph - N/A   Overcast
3:33 AM 15.8 °F 5.1 °F 12.2 °F 86% 29.75 in 4.0 mi South 8.1 mph - N/A   Overcast
3:54 AM 15.8 °F 6.1 °F 12.2 °F 86% 29.75 in 4.0 mi South 6.9 mph - N/A   Overcast
4:14 AM 15.8 °F 3.4 °F 12.2 °F 86% 29.74 in 3.0 mi South 10.4 mph - N/A   Overcast
4:28 AM 15.8 °F 5.1 °F 12.2 °F 86% 29.74 in 2.5 mi South 8.1 mph - N/A   Overcast
4:54 AM 15.8 °F 5.1 °F 12.2 °F 86% 29.73 in 1.5 mi South 8.1 mph 16.1 mph N/A   Overcast
5:14 AM 15.8 °F 6.1 °F 12.2 °F 86% 29.73 in 1.2 mi South 6.9 mph - N/A   Overcast
5:34 AM 17.6 °F 8.2 °F 12.2 °F 79% 29.72 in 1.0 mi South 6.9 mph - N/A   Overcast
5:54 AM 17.6 °F 10.7 °F 14.0 °F 86% 29.72 in 0.8 mi South 4.6 mph - N/A   Overcast
6:13 AM 17.6 °F 8.2 °F 14.0 °F 86% 29.71 in 0.8 mi South 6.9 mph - N/A   Overcast
6:33 AM 17.6 °F 5.7 °F 14.0 °F 86% 29.70 in 0.5 mi South 10.4 mph - N/A Fog Light Freezing Fog
6:54 AM 17.6 °F 7.3 °F 14.0 °F 86% 29.69 in 0.5 mi South 8.1 mph - N/A Fog Light Freezing Fog
7:14 AM 17.6 °F 8.2 °F 14.0 °F 86% 29.69 in 0.5 mi South 6.9 mph - N/A Fog Light Freezing Fog
7:34 AM 17.6 °F 8.2 °F 14.0 °F 86% 29.69 in 0.5 mi South 6.9 mph - N/A Fog Light Freezing Fog
7:54 AM 17.6 °F 8.2 °F 14.0 °F 86% 29.69 in 0.8 mi South 6.9 mph - N/A   Overcast
8:14 AM 17.6 °F 9.3 °F 14.0 °F 86% 29.69 in 0.8 mi South 5.8 mph - N/A   Overcast
8:34 AM 17.6 °F 8.2 °F 14.0 °F 86% 29.68 in 0.8 mi South 6.9 mph - N/A   Overcast
8:54 AM 17.6 °F 8.2 °F 15.8 °F 93% 29.69 in 0.8 mi South 6.9 mph - N/A   Overcast
9:13 AM 17.6 °F 8.2 °F 15.8 °F 93% 29.69 in 1.0 mi South 6.9 mph - N/A   Overcast
9:34 AM 19.4 °F 10.4 °F 15.8 °F 86% 29.69 in 1.0 mi South 6.9 mph - N/A   Overcast
9:54 AM 19.4 °F 9.5 °F 15.8 °F 86% 29.69 in 1.0 mi South 8.1 mph - N/A   Overcast
10:13 AM 19.4 °F 10.4 °F 15.8 °F 86% 29.69 in 1.5 mi South 6.9 mph - N/A   Overcast
10:34 AM 19.4 °F 8.6 °F 15.8 °F 86% 29.68 in 1.8 mi South 9.2 mph - N/A   Overcast
10:54 AM 19.4 °F 9.5 °F 15.8 °F 86% 29.67 in 1.2 mi South 8.1 mph - N/A   Overcast
11:14 AM 19.4 °F 9.5 °F 15.8 °F 86% 29.66 in 1.5 mi South 8.1 mph - N/A   Overcast
11:34 AM 19.4 °F 8.6 °F 15.8 °F 86% 29.66 in 2.0 mi SSW 9.2 mph - N/A   Overcast
11:53 AM 19.4 °F 10.4 °F 15.8 °F 86% 29.65 in 2.0 mi South 6.9 mph - N/A   Overcast
12:14 PM 17.6 °F 7.3 °F 15.8 °F 93% 29.63 in 3.0 mi South 8.1 mph - N/A   Overcast
12:33 PM 19.4 °F 14.3 °F 15.8 °F 86% 29.62 in 3.0 mi South 3.5 mph - N/A   Overcast
12:54 PM 19.4 °F 12.8 °F 15.8 °F 86% 29.61 in 3.0 mi South 4.6 mph - N/A   Overcast
1:13 PM 19.4 °F 12.8 °F 15.8 °F 86% 29.61 in 3.0 mi South 4.6 mph - N/A   Overcast
1:34 PM 19.4 °F 14.3 °F 15.8 °F 86% 29.60 in 3.0 mi South 3.5 mph - N/A   Overcast
1:53 PM 19.4 °F 12.8 °F 15.8 °F 86% 29.60 in 1.8 mi South 4.6 mph - N/A   Overcast
2:14 PM 19.4 °F 12.8 °F 17.6 °F 93% 29.58 in 0.8 mi South 4.6 mph - N/A   Overcast
2:34 PM 19.4 °F 14.3 °F 17.6 °F 93% 29.57 in 0.5 mi South 3.5 mph - N/A Snow Light Snow
2:54 PM 19.4 °F 14.3 °F 17.6 °F 93% 29.57 in 0.5 mi South 3.5 mph - N/A Fog Light Freezing Fog
3:13 PM 19.4 °F 12.8 °F 17.6 °F 93% 29.57 in 0.2 mi SSE 4.6 mph - N/A Snow Light Snow
3:34 PM 19.4 °F 14.3 °F 17.6 °F 93% 29.57 in 0.2 mi SSE 3.5 mph - N/A Fog Light Freezing Fog
3:54 PM 21.2 °F 14.9 °F 17.6 °F 86% 29.57 in 0.5 mi South 4.6 mph - N/A Fog Light Freezing Fog
4:13 PM 21.2 °F 16.4 °F 17.6 °F 86% 29.56 in 0.5 mi South 3.5 mph - N/A Fog Light Freezing Fog
4:34 PM 21.2 °F 14.9 °F 17.6 °F 86% 29.55 in 0.2 mi South 4.6 mph - N/A Fog Light Freezing Fog
4:54 PM 21.2 °F 16.4 °F 17.6 °F 86% 29.55 in 0.5 mi SSE 3.5 mph - N/A Fog Light Freezing Fog
5:14 PM 21.2 °F 16.4 °F 17.6 °F 86% 29.55 in 0.5 mi SSE 3.5 mph - N/A Fog Light Freezing Fog
5:34 PM 21.2 °F 16.4 °F 19.4 °F 93% 29.54 in 0.5 mi South 3.5 mph - N/A Fog Light Freezing Fog
5:53 PM 21.2 °F 14.9 °F 19.4 °F 93% 29.53 in 0.5 mi South 4.6 mph - N/A Fog Light Freezing Fog
6:13 PM 21.2 °F 16.4 °F 19.4 °F 93% 29.52 in 0.5 mi South 3.5 mph - N/A Fog Light Freezing Fog
6:33 PM 21.2 °F 16.4 °F 19.4 °F 93% 29.51 in 0.2 mi South 3.5 mph - N/A Fog Light Freezing Fog
6:54 PM 21.2 °F - 19.4 °F 93% 29.52 in 0.5 mi Calm Calm - N/A Fog Light Freezing Fog
7:14 PM 23.0 °F 18.4 °F 19.4 °F 86% 29.51 in 0.5 mi South 3.5 mph - N/A Snow Light Snow
7:33 PM 23.0 °F 18.4 °F 19.4 °F 86% 29.51 in 1.0 mi SSE 3.5 mph - N/A Snow Light Snow
7:53 PM 23.0 °F - 19.4 °F 86% 29.50 in 0.5 mi Calm Calm - N/A Snow Light Snow
8:13 PM 23.0 °F - 19.4 °F 86% 29.49 in 0.5 mi Calm Calm - N/A   Overcast
8:33 PM 23.0 °F 18.4 °F 19.4 °F 86% 29.48 in 0.5 mi South 3.5 mph - N/A   Overcast
8:54 PM 23.0 °F 18.4 °F 19.4 °F 86% 29.47 in 1.2 mi South 3.5 mph - N/A   Overcast
9:14 PM 23.0 °F - 19.4 °F 86% 29.46 in 1.2 mi Calm Calm - N/A   Overcast
9:33 PM 24.8 °F - 19.4 °F 80% 29.45 in 1.5 mi Calm Calm - N/A   Overcast
9:53 PM 24.8 °F 20.5 °F 19.4 °F 80% 29.45 in 1.5 mi South 3.5 mph - N/A   Overcast
10:13 PM 24.8 °F - 19.4 °F 80% 29.44 in 1.5 mi Calm Calm - N/A Snow Light Snow
10:33 PM 24.8 °F - 19.4 °F 80% 29.43 in 2.5 mi Calm Calm - N/A Snow Light Snow
10:53 PM 24.8 °F - 19.4 °F 80% 29.43 in 2.5 mi Calm Calm - N/A Snow Light Snow
11:14 PM 24.8 °F - 19.4 °F 80% 29.42 in 3.0 mi Calm Calm - N/A   Overcast
11:33 PM 24.8 °F - 19.4 °F 80% 29.41 in 1.8 mi Calm Calm - N/A   Overcast
11:54 PM 24.8 °F - 19.4 °F 80% 29.40 in 2.0 mi Calm Calm - N/A   Overcast